Regional Weather Roundup
Issued by NWS Sterling, VA

Home | Current Version | Previous Version | Graphics & Text | Print | Product List | Glossary On
Versions: 1 2 3 4 5 6 7 8 9 10 11 12 13 14 15 16 17 18 19 20 21 22 23 24 25 26 27 28 29 30 31 32 33 34 35 36 37 38 39 40 41 42 43 44 45 46 47 48 49 50
000
ASUS41 KLWX 060210
RWRLWX

REGIONAL WEATHER ROUNDUP
NATIONAL WEATHER SERVICE BALTIMORE MD/WASHINGTON DC
900 PM EST THU MAR 05 2015

Note: "FAIR" indicates few or no clouds below 12,000 feet
with no significant weather and/or obstructions to visibility.
 TC=TEMPERATURE CELSIUS

 * =Non NWS site. Station does not report precipitation (e.g. rain,
    snow, etc.), thunder, or fog.

DCZ001-MDZ009-015-VAZ040>042-051-053>054-060300-
WASHINGTON METRO

CITY           SKY/WX    TMP DP  RH WIND       PRES   REMARKS
WASHINGTON NAT FLURRIES  27  16  63 NW15      30.40R WCI  15
DULLES         FLURRIES  23  13  65 NW10      30.39R WCI  12
ANDREWS AFB    FLURRIES  23  16  74 NW13      30.36R WCI  11
FT BELVOIR     MIX PCPN  25  17  71 NW12      30.40R WCI  14
QUANTICO       CLOUDY    26  18  71 NE12      30.40R WCI  16
LEESBURG*      CLOUDY    25  18  74 N8        30.40R WCI  16
MANASSAS*      CLOUDY    25  16  68 N9G18     30.40  WCI  15
GAITHERSBURG*  CLOUDY    19  14  79 NW3       30.41R

$$

MDZ006>007-011-014-060300-
BALTIMORE METRO

CITY           SKY/WX    TMP DP  RH WIND       PRES   REMARKS
BWI AIRPORT    NOT AVBL
MD SCIENCE CTR   N/A     23  15  71 MISG      30.43R
MARTIN STATE   CLOUDY    23  18  80 NW6       30.41R
ANNAPOLIS      CLOUDY    24  17  74 N9        30.38R WCI  14
FORT MEADE*    CLOUDY    23  19  86 CALM      30.40R

$$

MDZ012-015-019>023-060300-
MARYLAND EASTERN SHORE

CITY           SKY/WX    TMP DP  RH WIND       PRES   REMARKS
OCEAN CITY     CLOUDY    23  20  88 N16       30.29R WCI  10
SALISBURY      CLOUDY    25  18  74 N13G22    30.33R WCI  14
BAY BRIDGE AP*   N/A     25  14  63 N10G17    30.38R WCI  15
CAMBRIDGE*     CLOUDY    27  21  80 N13       30.36R WCI  16
EASTON*        MOCLDY    25  25 100 N8        30.39R WCI  16

$$

MDZ017>025-060300-
SOUTHERN MARYLAND

CITY           SKY/WX    TMP DP  RH WIND       PRES   REMARKS
PATUXENT RIVER LGT SNOW  24  19  81 N16G25    30.37R WCI  11
ST INIGOES     CLOUDY    25  18  74 VRB5      30.35R
LEONARDTOWN*   CLOUDY    27  21  80 CALM      30.38R

$$

MDZ003>005-060300-
NORTH CENTRAL MARYLAND

CITY           SKY/WX    TMP DP  RH WIND       PRES   REMARKS
FREDERICK*     CLOUDY    25  10  54 N8        30.43R WCI  16
HAGERSTOWN APT MOCLDY    20   7  57 NW8       30.38R WCI  10
WESTMINSTER*   CLOUDY    19  16  86 NW6       30.34R

$$

MDZ501>502-060300-
WESTERN MARYLAND

CITY           SKY/WX    TMP DP  RH WIND       PRES   REMARKS
OAKLAND*       MOCLDY     5 N/A N/A NW7       30.24R
CUMBERLAND*    PTCLDY    19   5  53 NW13G22   30.46R WCI   7

$$

VAZ025>031-060300-
SHENANDOAH VALLEY

CITY           SKY/WX    TMP DP  RH WIND       PRES   REMARKS
WINCHESTER*    CLOUDY    23   9  54 N9        30.38R WCI  13
FRONT ROYAL*   CLOUDY    21  14  73 CALM      30.37R
LURAY*         CLOUDY    27  18  69 N9        30.35R WCI  17
NEW MARKET*    CLOUDY    22  14  72 NE5       30.36R
STAUNTON*      CLOUDY    24  19  83 NE8       30.34R WCI  15
WAYNESBORO*    CLOUDY    21  18  88 N7        30.31R

$$

WVZ021-048>050-054>055-060300-
EASTERN WEST VIRGINIA PANHANDLE

CITY           SKY/WX    TMP DP  RH WIND       PRES   REMARKS
MARTINSBURG    CLOUDY    22   7  52 NW10      30.40R WCI  11
PETERSBURG*    NOT AVBL

$$

VAZ036>039-050-060300-
CENTRAL FOOTHILLS

CITY           SKY/WX    TMP DP  RH WIND       PRES   REMARKS
CHARLOTTESVILL CLOUDY    25  21  85 CALM      30.34R
CULPEPER*      CLOUDY    25  18  74 N10       30.39R WCI  15
ORANGE*        CLOUDY    27  21  80 N9        30.38R WCI  17
GORDONSVILLE*  CLOUDY    24  20  85 NE6       30.35R
WARRENTON*     CLOUDY    25  20  81 N16       30.38R WCI  12

$$

VAZ055>057-060300-
NORTH AND CENTRAL PIEDMONT

CITY           SKY/WX    TMP DP  RH WIND       PRES   REMARKS
FREDERICKSBRG* CLOUDY    27  23  84 NW9       30.38R WCI  18
STAFFORD*      CLOUDY    24  20  85 CALM      30.42R

$$

NCZ024-NYZ072-PAZ021-071-VAZ022-071-060300-
OTHER REGIONAL OBSERVATIONS

CITY           SKY/WX    TMP DP  RH WIND       PRES   REMARKS
NEW YORK CITY  CLOUDY    21   7  54 VRB5      30.31R
PHILADELPHIA   CLOUDY    22  12  65 NW9       30.37R WCI  12
PITTSBURGH     PTCLDY    10  -1  61 N9        30.45R WCI  -3
ROANOKE        CLOUDY    27  17  66 N8        30.34R WCI  19
RICHMOND       CLOUDY    27  21  78 N14       30.35R WCI  16
RALEIGH        CLOUDY    33  28  81 NE14      30.29R WCI  23

$$

ANZ530>537-060300-
MARINE OBSERVATIONS

STATION/POSITION TIME  TEMP    WIND        PRES
                       AIR SEA DIR/SP/G
                 (UTC) (F)     (DEG/KT/KT) (MB)
THOMAS PT LIGHT  0200          140/ 13/ 15   N/A
BALT KEY BRIDGE  0100   21     330/ 11/ 14 1028.0R
COVE POINT       0100   23      10/ 13/ 17 1027.2R
LEWISETTA        0100   26 33  360/ 11/ 15 1026.6R
SOLOMONS ISLAND  0100      33                N/A

$$




USA.gov is the U.S. government's official web portal to all federal, state and local government web resources and services.